QPF
0.00 0.00 0.00 0.00 0.00 0.00 0.00 0.00 0.00 0.00 0.00 0.00 0.00 0.00 0.00 0.00 0.00 0.00 0.00 0.00 0.00 0.00 0.00 0.00 0.00 0.00 0.00 0.00 0.00 0.00 0.00 0.00 0.01 0.02 0.00 0.00 0.00 0.00 0.00 0.00 0.00 0.00 0.00 0.00 0.00
0.00 0.00 0.00 0.00 0.00 0.00 0.00 0.00 0.00 0.00 0.00 0.00 0.00 0.00 0.00 0.00 0.00 0.00 0.00 0.00 0.00 0.00 0.00 0.00 0.00 0.00 0.00 0.00 0.00 0.00 0.00 0.00 0.02 0.02 0.00 0.00 0.00 0.00 0.00 0.00 0.02 0.02 0.00 0.00 0.00
0.00 0.00 0.00 0.00 0.00 0.00 0.00 0.00 0.00 0.00 0.00 0.00 0.00 0.00 0.00 0.00 0.00 0.00 0.00 0.00 0.00 0.00 0.00 0.00 0.00 0.00 0.00 0.00 0.00 0.00 0.00 0.00 0.01 0.00 0.00 0.00 0.00 0.01 0.00 0.00 0.00 0.02 0.00 0.00 0.00
0.00 0.00 0.00 0.00 0.00 0.00 0.00 0.00 0.00 0.00 0.00 0.00 0.00 0.00 0.00 0.00 0.00 0.00 0.00 0.00 0.00 0.00 0.00 0.00 0.00 0.00 0.00 0.00 0.00 0.00 0.00 0.00 0.01 0.00 0.00 0.00 0.00 0.00 0.00 0.00 0.00 0.01 0.01 0.00 0.00
0.00 0.00 0.00 0.00 0.00 0.00 0.00 0.00 0.00 0.00 0.00 0.00 0.00 0.00 0.00 0.00 0.00 0.00 0.00 0.00 0.00 0.00 0.00 0.00 0.00 0.00 0.00 0.00 0.00 0.00 0.00 0.00 0.00 0.00 0.00 0.00 0.00 0.00 0.00 0.00 0.00 0.00 0.00 0.00 0.00
0.00 0.00 0.00 0.00 0.00 0.00 0.00 0.00 0.00 0.00 0.00 0.00 0.00 0.00 0.00 0.00 0.00 0.00 0.00 0.00 0.00 0.00 0.00 0.00 0.00 0.00 0.00 0.00 0.00 0.00 0.00 0.02 0.01 0.04 0.01 0.00 0.02 0.00 0.00 0.00 0.00 0.00 0.00 0.00 0.00
0.00 0.00 0.00 0.00 0.00 0.00 0.00 0.00 0.00 0.00 0.00 0.00 0.00 0.00 0.00 0.00 0.00 0.00 0.00 0.00 0.00 0.00 0.00 0.00 0.00 0.00 0.00 0.00 0.00 0.00 0.00 0.01 0.02 0.02 0.03 0.00 0.01 0.00 0.00 0.00 0.00 0.00 0.00 0.01 0.01
0.00 0.00 0.00 0.00 0.00 0.00 0.00 0.00 0.00 0.00 0.00 0.00 0.00 0.00 0.00 0.00 0.00 0.00 0.00 0.00 0.00 0.00 0.00 0.00 0.00 0.00 0.00 0.00 0.00 0.00 0.00 0.00 0.00 0.00 0.00 0.02 0.00 0.00 0.00 0.00 0.00 0.00 0.00 0.00 0.00
0.00 0.00 0.00 0.00 0.00 0.00 0.00 0.00 0.00 0.00 0.00 0.00 0.00 0.00 0.00 0.00 0.00 0.00 0.00 0.00 0.00 0.00 0.00 0.00 0.00 0.00 0.00 0.00 0.00 0.00 0.00 0.00 0.00 0.00 0.00 0.00 0.00 0.00 0.01 0.02 0.00 0.00 0.01 0.01 0.00
0.00 0.00 0.00 0.00 0.00 0.00 0.00 0.00 0.00 0.00 0.00 0.00 0.00 0.00 0.00 0.00 0.00 0.00 0.00 0.00 0.00 0.00 0.00 0.00 0.00 0.00 0.00 0.00 0.00 0.00 0.00 0.00 0.00 0.00 0.00 0.00 0.00 0.00 0.00 0.05 0.02 0.00 0.03 0.04 0.00
0.00 0.00 0.00 0.00 0.00 0.00 0.00 0.00 0.00 0.00 0.00 0.00 0.00 0.00 0.00 0.00 0.00 0.00 0.00 0.00 0.00 0.00 0.00 0.00 0.00 0.00 0.00 0.00 0.00 0.00 0.00 0.00 0.00 0.00 0.00 0.00 0.00 0.00 0.00 0.05 0.03 0.00 0.02 0.01 0.00
0.00 0.00 0.00 0.00 0.00 0.00 0.00 0.00 0.00 0.00 0.00 0.00 0.00 0.00 0.00 0.00 0.00 0.00 0.00 0.00 0.00 0.00 0.00 0.00 0.00 0.00 0.00 0.00 0.00 0.00 0.00 0.00 0.00 0.00 0.00 0.00 0.00 0.00 0.00 0.00 0.01 0.00 0.01 0.02 0.01
0.00 0.00 0.00 0.00 0.00 0.00 0.00 0.00 0.00 0.00 0.00 0.00 0.00 0.00 0.00 0.00 0.00 0.00 0.00 0.00 0.00 0.00 0.00 0.00 0.00 0.00 0.00 0.00 0.00 0.00 0.00 0.00 0.00 0.00 0.00 0.00 0.00 0.00 0.00 0.00 0.01 0.00 0.00 0.00 0.00
0.00 0.00 0.00 0.00 0.00 0.00 0.00 0.00 0.00 0.00 0.00 0.00 0.00 0.00 0.00 0.00 0.00 0.00 0.00 0.00 0.00 0.00 0.00 0.00 0.00 0.00 0.00 0.00 0.00 0.00 0.00 0.00 0.00 0.00 0.00 0.00 0.00 0.00 0.00 0.00 0.00 0.00 0.00 0.00 0.00
0.00 0.00 0.00 0.00 0.00 0.00 0.00 0.00 0.00 0.00 0.00 0.00 0.00 0.00 0.00 0.00 0.00 0.00 0.00 0.00 0.00 0.00 0.00 0.00 0.00 0.00 0.00 0.00 0.00 0.00 0.00 0.00 0.00 0.00 0.00 0.00 0.00 0.00 0.00 0.00 0.00 0.00 0.00 0.00 0.00
0.00 0.00 0.00 0.00 0.00 0.00 0.00 0.00 0.00 0.00 0.00 0.00 0.00 0.00 0.00 0.00 0.00 0.00 0.00 0.00 0.00 0.00 0.00 0.00 0.00 0.00 0.00 0.00 0.00 0.00 0.00 0.00 0.00 0.00 0.00 0.00 0.00 0.00 0.00 0.00 0.00 0.00 0.00 0.00 0.00
0.00 0.00 0.00 0.00 0.00 0.00 0.00 0.00 0.00 0.00 0.00 0.00 0.00 0.00 0.00 0.00 0.00 0.00 0.00 0.00 0.00 0.00 0.00 0.00 0.00 0.00 0.00 0.00 0.00 0.00 0.00 0.00 0.00 0.00 0.00 0.00 0.00 0.00 0.00 0.00 0.00 0.01 0.00 0.00 0.00
0.00 0.00 0.00 0.00 0.00 0.00 0.00 0.00 0.00 0.00 0.00 0.00 0.00 0.00 0.00 0.00 0.00 0.00 0.00 0.00 0.00 0.00 0.00 0.00 0.00 0.00 0.00 0.00 0.00 0.00 0.00 0.00 0.00 0.00 0.00 0.00 0.00 0.00 0.00 0.00 0.00 0.00 0.02 0.05 0.01
0.00 0.00 0.00 0.00 0.00 0.00 0.00 0.00 0.00 0.00 0.00 0.00 0.00 0.00 0.00 0.00 0.00 0.00 0.00 0.00 0.00 0.00 0.00 0.00 0.00 0.00 0.00 0.00 0.00 0.00 0.00 0.00 0.00 0.00 0.00 0.00 0.00 0.00 0.00 0.00 0.00 0.00 0.01 0.06 0.04
0.00 0.00 0.00 0.00 0.00 0.00 0.00 0.00 0.00 0.00 0.00 0.00 0.00 0.00 0.00 0.00 0.00 0.00 0.00 0.00 0.00 0.00 0.00 0.00 0.00 0.00 0.00 0.00 0.00 0.00 0.00 0.00 0.00 0.00 0.00 0.00 0.00 0.00 0.00 0.00 0.00 0.00 0.00 0.05 0.05
0.00 0.00 0.00 0.00 0.00 0.00 0.00 0.00 0.00 0.00 0.00 0.00 0.00 0.00 0.00 0.00 0.00 0.00 0.00 0.00 0.00 0.00 0.00 0.00 0.00 0.00 0.00 0.00 0.00 0.00 0.00 0.00 0.00 0.00 0.00 0.00 0.00 0.00 0.00 0.00 0.00 0.00 0.00 0.00 0.00
0.00 0.00 0.00 0.00 0.00 0.00 0.00 0.00 0.00 0.00 0.00 0.00 0.00 0.00 0.00 0.00 0.00 0.00 0.00 0.00 0.00 0.00 0.00 0.00 0.00 0.00 0.00 0.00 0.00 0.00 0.00 0.00 0.00 0.00 0.00 0.00 0.00 0.00 0.00 0.00 0.00 0.00 0.00 0.00 0.00
0.00 0.00 0.00 0.00 0.00 0.00 0.00 0.00 0.00 0.00 0.00 0.00 0.00 0.00 0.00 0.00 0.00 0.00 0.00 0.00 0.00 0.00 0.00 0.00 0.00 0.00 0.00 0.00 0.00 0.00 0.00 0.00 0.00 0.00 0.00 0.00 0.00 0.00 0.00 0.00 0.00 0.00 0.00 0.00 0.00
0.00 0.00 0.00 0.00 0.00 0.00 0.00 0.00 0.00 0.00 0.00 0.00 0.00 0.00 0.00 0.00 0.00 0.00 0.00 0.00 0.00 0.00 0.00 0.00 0.00 0.00 0.00 0.00 0.00 0.00 0.00 0.00 0.00 0.00 0.00 0.00 0.00 0.00 0.00 0.00 0.00 0.00 0.00 0.00 0.00
0.00 0.00 0.00 0.00 0.00 0.00 0.00 0.00 0.00 0.00 0.00 0.00 0.00 0.00 0.00 0.00 0.00 0.00 0.00 0.00 0.00 0.00 0.00 0.00 0.00 0.00 0.00 0.00 0.00 0.00 0.00 0.00 0.00 0.00 0.00 0.00 0.00 0.00 0.00 0.00 0.00 0.00 0.00 0.00 0.00
0.00 0.00 0.00 0.00 0.00 0.00 0.00 0.00 0.00 0.00 0.00 0.00 0.00 0.00 0.00 0.00 0.00 0.00 0.00 0.00 0.00 0.00 0.00 0.02 0.00 0.00 0.00 0.00 0.00 0.00 0.00 0.00 0.00 0.00 0.00 0.00 0.00 0.00 0.00 0.00 0.00 0.00 0.00 0.00 0.00
0.00 0.00 0.00 0.00 0.00 0.00 0.00 0.00 0.00 0.00 0.00 0.00 0.00 0.00 0.00 0.00 0.00 0.00 0.00 0.00 0.00 0.00 0.00 0.00 0.00 0.01 0.00 0.00 0.00 0.00 0.00 0.00 0.00 0.00 0.00 0.00 0.00 0.00 0.00 0.00 0.00 0.00 0.00 0.00 0.00
MSLP
1017.57 1017.33 1017.03 1016.72 1016.42 1016.14 1015.83 1015.53 1015.29 1015.10 1014.88 1014.61 1014.34 1014.08 1013.77 1013.37 1012.55 1012.47 1011.45 1009.18 1008.95 1008.67 1008.93 1008.74 1008.56 1008.66 1008.87 1008.98 1009.14 1009.16 1010.56 1011.01 1011.12 1010.56 1009.89 1009.14 1009.02 1008.93 1009.15 1009.20 1009.65 1009.75 1010.21 1011.11 1011.53
1017.54 1017.29 1017.01 1016.71 1016.36 1016.07 1015.81 1015.50 1015.20 1014.95 1014.77 1014.57 1014.34 1014.02 1013.72 1013.37 1012.79 1011.29 1008.32 1008.16 1008.26 1008.58 1008.98 1008.76 1008.52 1008.79 1009.05 1008.47 1008.39 1008.88 1010.09 1010.32 1009.99 1009.80 1009.28 1009.20 1009.35 1009.58 1010.10 1010.07 1010.50 1010.74 1011.28 1011.46 1011.66
1017.53 1017.24 1016.95 1016.65 1016.31 1015.99 1015.68 1015.38 1015.11 1014.87 1014.68 1014.46 1014.29 1014.03 1013.73 1013.48 1012.46 1009.00 1007.15 1007.36 1007.97 1008.33 1008.37 1008.62 1008.82 1009.06 1008.79 1008.40 1008.04 1008.33 1009.15 1009.46 1009.31 1009.10 1008.89 1009.32 1009.68 1009.82 1010.37 1010.68 1010.54 1010.43 1011.12 1011.65 1012.13
1017.56 1017.23 1016.85 1016.49 1016.15 1015.84 1015.54 1015.29 1015.02 1014.78 1014.57 1014.37 1014.19 1013.91 1013.63 1013.35 1011.09 1007.56 1007.06 1007.05 1007.79 1008.17 1008.59 1008.58 1008.60 1008.80 1008.87 1008.50 1007.73 1008.22 1008.98 1009.23 1009.30 1009.06 1009.01 1009.42 1009.67 1010.05 1010.00 1010.01 1010.20 1010.33 1010.83 1011.38 1011.98
1017.49 1017.15 1016.75 1016.36 1015.99 1015.67 1015.34 1015.04 1014.85 1014.66 1014.40 1014.23 1014.04 1013.77 1013.49 1012.55 1009.60 1007.13 1007.21 1007.48 1007.96 1008.24 1008.38 1008.53 1008.51 1008.67 1008.90 1008.21 1008.04 1008.64 1008.91 1009.24 1009.25 1009.04 1009.30 1009.46 1009.83 1010.06 1010.01 1010.15 1010.47 1010.50 1010.88 1011.50 1011.79
1017.39 1017.00 1016.57 1016.17 1015.81 1015.46 1015.18 1014.87 1014.57 1014.36 1014.17 1014.05 1013.92 1013.79 1013.25 1011.15 1007.15 1006.72 1007.15 1007.77 1007.85 1008.12 1007.89 1008.16 1008.24 1008.32 1008.46 1008.02 1008.05 1008.70 1008.86 1009.03 1008.63 1008.96 1009.37 1009.41 1010.28 1010.31 1009.91 1010.10 1010.64 1010.73 1010.66 1011.14 1011.59
1017.21 1016.83 1016.43 1016.00 1015.60 1015.24 1014.91 1014.63 1014.34 1014.11 1013.87 1013.78 1013.71 1013.47 1012.56 1008.98 1007.19 1007.23 1007.51 1007.63 1007.55 1007.73 1007.76 1007.52 1007.71 1008.34 1008.08 1008.03 1008.63 1009.12 1009.25 1008.83 1008.67 1008.71 1009.17 1009.57 1010.52 1010.15 1009.57 1009.91 1009.97 1010.28 1010.52 1010.26 1010.79
1017.02 1016.56 1016.12 1015.71 1015.33 1014.95 1014.56 1014.25 1013.95 1013.72 1013.54 1013.55 1013.54 1013.25 1011.31 1007.57 1007.12 1007.25 1007.32 1007.59 1007.54 1007.37 1007.49 1007.09 1007.25 1007.99 1007.84 1007.71 1008.04 1008.78 1009.53 1009.63 1008.54 1009.00 1008.96 1009.27 1009.41 1009.22 1009.36 1009.73 1010.00 1009.73 1010.10 1010.01 1010.35
1016.83 1016.40 1015.97 1015.51 1015.04 1014.61 1014.14 1013.65 1013.31 1013.24 1013.27 1013.35 1013.40 1012.75 1010.22 1007.14 1007.11 1006.41 1006.85 1007.28 1007.24 1007.21 1007.06 1006.82 1007.36 1007.91 1007.84 1008.55 1009.05 1009.09 1009.49 1009.21 1008.49 1008.06 1008.51 1008.94 1008.91 1008.39 1009.10 1010.41 1010.12 1009.87 1009.83 1009.46 1010.15
1016.62 1016.15 1015.75 1015.37 1014.94 1014.41 1013.64 1013.07 1012.80 1012.96 1013.22 1013.12 1012.48 1012.28 1009.05 1006.89 1005.92 1005.67 1006.13 1006.49 1007.19 1007.24 1007.69 1007.66 1008.03 1008.40 1008.87 1009.52 1009.79 1009.21 1008.99 1008.37 1007.95 1007.80 1008.28 1008.32 1007.97 1008.26 1009.18 1008.48 1008.98 1009.64 1009.66 1009.92 1010.00
1016.43 1015.93 1015.49 1015.08 1014.74 1014.43 1013.55 1012.81 1013.11 1012.74 1012.24 1010.74 1009.80 1009.00 1007.43 1006.17 1005.46 1005.52 1005.46 1006.06 1006.73 1007.55 1008.15 1008.10 1008.85 1008.87 1008.50 1008.64 1008.40 1008.45 1008.34 1007.57 1006.49 1006.51 1007.32 1007.54 1007.59 1008.08 1008.61 1008.73 1009.34 1009.40 1009.44 1009.15 1009.55
1016.14 1015.67 1015.18 1014.79 1014.53 1014.40 1014.36 1013.14 1010.77 1010.06 1010.02 1008.73 1008.20 1007.60 1006.43 1006.40 1006.50 1005.59 1005.44 1006.48 1006.92 1007.70 1008.04 1008.72 1008.54 1007.85 1007.73 1007.66 1007.84 1007.66 1007.56 1006.40 1005.84 1005.50 1006.84 1006.91 1007.47 1008.06 1008.16 1008.42 1008.54 1008.69 1009.03 1009.00 1009.44
1015.76 1015.32 1014.85 1014.41 1014.07 1014.09 1013.24 1011.01 1008.87 1009.24 1009.41 1007.11 1006.54 1006.57 1005.88 1005.89 1005.81 1005.06 1005.49 1006.04 1006.86 1007.65 1008.07 1008.48 1007.18 1006.96 1007.49 1007.06 1007.00 1006.59 1006.48 1005.76 1005.57 1005.33 1006.14 1006.97 1008.27 1008.55 1008.89 1008.79 1008.39 1008.32 1008.36 1008.71 1008.55
1015.30 1014.86 1014.46 1013.94 1014.03 1012.96 1011.62 1008.86 1008.80 1009.51 1009.57 1006.71 1005.58 1004.52 1004.80 1005.11 1004.92 1003.80 1004.37 1005.48 1006.79 1007.21 1007.69 1007.76 1006.40 1006.81 1006.41 1006.33 1005.95 1005.95 1004.94 1005.25 1005.39 1006.04 1006.60 1006.69 1008.18 1008.74 1008.63 1008.18 1007.96 1007.86 1007.98 1007.89 1008.32
1014.92 1014.53 1014.28 1014.14 1013.88 1012.37 1009.24 1008.91 1008.92 1009.15 1008.76 1004.90 1004.46 1003.22 1003.66 1004.58 1004.02 1003.63 1003.93 1004.90 1005.89 1006.55 1007.38 1006.67 1006.35 1005.99 1005.75 1005.25 1004.75 1004.83 1004.38 1004.97 1005.43 1006.31 1007.06 1007.33 1008.09 1007.71 1008.35 1007.99 1006.94 1006.61 1007.03 1007.06 1007.37
1014.45 1014.07 1013.93 1013.93 1013.69 1010.49 1009.21 1008.80 1008.47 1009.41 1007.15 1004.35 1003.36 1003.48 1004.11 1004.38 1003.92 1003.67 1004.22 1004.60 1005.05 1006.17 1006.50 1006.34 1005.44 1005.32 1004.69 1004.26 1004.32 1004.40 1004.76 1005.47 1006.66 1007.51 1008.16 1007.51 1007.95 1007.20 1007.50 1005.82 1005.89 1005.77 1005.93 1005.92 1006.39
1013.62 1013.44 1013.58 1012.72 1011.03 1009.43 1009.05 1009.30 1009.89 1009.11 1006.04 1004.67 1004.02 1003.81 1004.02 1004.41 1004.26 1004.03 1004.47 1005.07 1005.67 1006.63 1006.87 1006.08 1005.04 1004.23 1004.20 1004.35 1003.78 1004.48 1006.12 1007.38 1008.41 1009.04 1008.78 1007.39 1007.53 1005.87 1004.54 1004.08 1004.08 1004.23 1004.62 1005.47 1006.31
1012.52 1012.48 1012.09 1011.13 1009.75 1009.94 1009.78 1010.39 1010.00 1007.94 1006.38 1004.91 1004.21 1003.86 1004.40 1004.37 1004.40 1004.17 1004.50 1005.08 1005.13 1005.64 1006.08 1006.08 1004.89 1003.66 1003.30 1003.67 1003.96 1004.75 1006.05 1007.80 1008.83 1009.76 1009.00 1007.71 1006.54 1004.43 1002.62 1002.22 1003.29 1003.89 1005.74 1005.73 1006.38
1011.48 1011.79 1011.58 1009.32 1009.48 1010.34 1010.77 1011.00 1009.62 1007.54 1006.16 1005.28 1004.48 1004.98 1005.29 1005.17 1005.14 1004.71 1004.62 1004.51 1004.27 1004.62 1005.48 1005.40 1004.38 1002.90 1003.06 1002.75 1003.62 1004.21 1005.47 1005.95 1008.22 1009.20 1009.11 1007.47 1005.56 1003.39 1002.58 1002.97 1003.45 1004.05 1004.94 1005.53 1005.91
1012.12 1011.45 1010.04 1008.02 1009.06 1009.98 1010.91 1010.82 1009.03 1007.01 1005.95 1005.36 1005.55 1005.61 1005.97 1005.79 1005.76 1005.51 1005.07 1004.81 1004.21 1004.04 1004.32 1004.54 1004.59 1003.19 1002.38 1002.50 1002.44 1003.07 1003.77 1006.20 1008.17 1009.15 1009.15 1007.62 1005.73 1004.03 1003.27 1003.67 1002.92 1003.66 1004.48 1004.52 1003.04
1012.15 1011.30 1008.51 1007.97 1009.13 1010.46 1011.12 1010.14 1008.24 1006.42 1005.54 1005.53 1005.82 1006.13 1006.48 1006.78 1006.68 1006.38 1006.02 1005.05 1004.58 1004.14 1004.00 1004.33 1004.73 1003.74 1003.10 1003.02 1003.01 1003.38 1004.22 1005.60 1007.09 1007.93 1008.36 1007.58 1006.10 1003.23 1002.57 1002.72 1003.00 1003.18 1003.50 1003.65 1002.67
1012.62 1011.47 1008.48 1008.46 1010.07 1010.71 1010.71 1009.23 1007.77 1006.53 1005.60 1005.64 1005.95 1006.60 1007.08 1007.47 1007.40 1007.09 1006.88 1006.26 1005.60 1005.44 1005.61 1005.48 1005.38 1004.94 1003.76 1002.87 1002.84 1002.82 1003.51 1004.95 1006.81 1007.55 1007.44 1006.44 1004.65 1002.37 1002.49 1002.75 1002.96 1002.94 1003.18 1002.91 1002.37
1013.75 1011.77 1008.87 1008.86 1010.50 1011.19 1010.26 1009.16 1008.12 1007.25 1006.88 1006.66 1006.87 1007.26 1007.67 1008.26 1008.32 1007.92 1007.63 1007.24 1006.92 1006.72 1007.30 1006.78 1006.64 1006.47 1005.16 1004.21 1003.40 1003.71 1004.11 1004.80 1005.81 1006.58 1006.82 1006.73 1004.53 1002.60 1002.53 1002.92 1002.76 1003.06 1002.96 1003.07 1002.93
1013.97 1012.87 1011.36 1010.95 1011.19 1011.41 1010.91 1009.83 1008.70 1008.08 1008.01 1007.94 1008.36 1008.05 1008.54 1008.96 1008.99 1008.96 1008.61 1008.11 1008.17 1007.88 1007.54 1007.25 1008.51 1008.90 1008.57 1007.43 1006.35 1005.21 1004.57 1004.56 1005.45 1006.50 1006.30 1005.62 1004.36 1003.21 1003.38 1002.95 1002.70 1002.58 1002.43 1002.73 1003.14
1014.43 1014.87 1014.29 1013.58 1012.59 1012.36 1011.46 1010.56 1009.84 1009.32 1009.08 1008.91 1009.03 1009.78 1010.17 1010.20 1009.98 1009.91 1009.55 1009.12 1008.66 1008.71 1009.08 1009.40 1009.81 1009.51 1009.09 1007.95 1006.66 1005.90 1005.24 1004.99 1005.07 1005.17 1005.53 1004.41 1003.92 1003.01 1002.30 1002.27 1001.77 1001.78 1002.40 1002.38 1002.80
1016.20 1016.23 1015.34 1014.75 1013.80 1012.93 1012.24 1011.45 1010.80 1010.25 1010.12 1010.29 1010.52 1010.38 1010.38 1010.79 1010.78 1010.63 1010.38 1010.49 1010.31 1009.39 1010.34 1010.64 1010.55 1010.04 1009.16 1007.97 1007.07 1005.65 1005.31 1004.81 1004.57 1004.36 1004.01 1003.76 1003.19 1002.14 1001.54 1002.43 1001.74 1001.28 1001.47 1001.83 1002.11
1017.24 1016.67 1016.46 1015.50 1014.78 1013.95 1013.42 1012.51 1012.02 1011.33 1010.99 1010.88 1010.83 1010.71 1010.64 1010.57 1010.21 1010.11 1010.42 1010.56 1010.68 1010.90 1011.00 1011.02 1010.98 1011.19 1009.86 1008.68 1007.54 1005.87 1004.98 1004.68 1004.51 1004.59 1004.59 1004.44 1003.58 1002.14 1001.64 1001.71 1001.97 1001.17 1001.28 1001.79 1001.88
Thickness
5739 5742 5746 5751 5755 5758 5762 5765 5768 5771 5774 5778 5781 5784 5787 5791 5798 5799 5799 5822 5826 5830 5828 5826 5825 5820 5816 5804 5808 5810 5760 5751 5762 5769 5776 5799 5791 5803 5808 5797 5797 5799 5795 5795 5796
5739 5742 5747 5751 5756 5759 5762 5766 5770 5773 5776 5779 5783 5786 5789 5792 5796 5800 5833 5835 5834 5831 5823 5815 5811 5812 5797 5805 5810 5791 5761 5765 5788 5788 5787 5795 5790 5786 5784 5785 5779 5782 5788 5796 5796
5740 5744 5749 5753 5757 5761 5765 5768 5772 5775 5778 5782 5785 5788 5790 5792 5795 5814 5844 5843 5837 5834 5831 5824 5817 5807 5796 5804 5806 5796 5777 5787 5795 5800 5803 5793 5786 5794 5780 5771 5781 5782 5783 5787 5789
5742 5746 5752 5756 5761 5764 5768 5771 5774 5778 5781 5784 5786 5789 5792 5794 5781 5836 5846 5846 5839 5835 5827 5819 5811 5799 5791 5785 5809 5787 5794 5798 5797 5801 5800 5790 5793 5782 5785 5787 5796 5795 5792 5787 5783
5745 5749 5755 5759 5764 5767 5771 5775 5778 5781 5785 5787 5789 5792 5795 5792 5803 5846 5846 5843 5838 5832 5821 5813 5804 5797 5783 5794 5803 5786 5795 5796 5797 5801 5799 5796 5785 5784 5784 5793 5797 5794 5792 5785 5784
5748 5753 5758 5762 5767 5771 5774 5778 5782 5785 5787 5789 5791 5792 5795 5784 5846 5851 5847 5841 5837 5830 5825 5819 5808 5810 5795 5798 5794 5796 5793 5795 5806 5801 5800 5788 5780 5785 5790 5795 5788 5788 5788 5788 5784
5751 5755 5760 5765 5769 5773 5778 5781 5784 5787 5790 5792 5793 5795 5794 5807 5847 5846 5845 5840 5841 5834 5823 5829 5825 5808 5805 5793 5801 5793 5784 5791 5796 5798 5789 5794 5769 5774 5795 5794 5786 5786 5786 5793 5791
5753 5757 5763 5767 5772 5776 5781 5784 5788 5791 5793 5793 5794 5795 5792 5843 5847 5844 5845 5837 5841 5841 5834 5837 5834 5816 5808 5812 5801 5789 5777 5758 5793 5792 5796 5792 5757 5788 5797 5790 5782 5786 5786 5791 5789
5754 5758 5763 5768 5773 5778 5783 5789 5792 5793 5794 5794 5793 5794 5794 5847 5835 5848 5845 5831 5835 5836 5838 5842 5830 5808 5806 5780 5762 5775 5753 5755 5778 5800 5798 5788 5769 5795 5795 5779 5779 5782 5781 5788 5784
5754 5759 5763 5767 5772 5778 5786 5791 5794 5794 5792 5794 5798 5785 5813 5825 5844 5850 5850 5842 5826 5826 5817 5814 5800 5784 5774 5758 5732 5752 5763 5773 5771 5789 5790 5783 5785 5796 5790 5797 5791 5783 5784 5781 5783
5754 5759 5763 5768 5772 5775 5784 5790 5784 5784 5790 5796 5802 5806 5821 5839 5852 5842 5848 5837 5828 5812 5785 5800 5775 5759 5775 5778 5785 5775 5769 5775 5795 5805 5790 5784 5788 5791 5791 5789 5781 5780 5783 5787 5782
5754 5758 5763 5767 5770 5772 5773 5781 5795 5806 5785 5813 5816 5818 5833 5832 5812 5828 5844 5811 5806 5783 5794 5780 5762 5790 5798 5796 5785 5778 5770 5784 5800 5813 5791 5787 5783 5789 5794 5792 5792 5789 5785 5787 5786
5753 5757 5762 5767 5770 5771 5777 5792 5815 5813 5783 5808 5819 5814 5823 5828 5811 5818 5828 5813 5798 5783 5783 5764 5788 5806 5792 5790 5784 5786 5776 5787 5787 5807 5802 5788 5764 5774 5781 5783 5792 5792 5793 5791 5793
5755 5758 5762 5767 5769 5776 5782 5807 5809 5806 5753 5787 5809 5822 5827 5823 5807 5844 5839 5817 5795 5780 5780 5776 5805 5795 5793 5784 5789 5770 5806 5801 5799 5779 5756 5795 5733 5762 5772 5780 5788 5789 5790 5792 5792
5755 5758 5760 5762 5762 5774 5799 5804 5807 5794 5724 5814 5810 5846 5831 5808 5819 5822 5841 5819 5789 5787 5783 5775 5789 5787 5783 5792 5807 5789 5813 5804 5802 5784 5773 5771 5753 5771 5771 5771 5792 5797 5793 5800 5801
5757 5759 5760 5761 5761 5787 5799 5802 5798 5739 5724 5795 5818 5808 5804 5806 5811 5823 5817 5825 5815 5789 5788 5786 5809 5802 5797 5810 5810 5816 5805 5788 5773 5758 5732 5767 5760 5761 5759 5790 5796 5803 5806 5809 5808
5761 5762 5761 5766 5775 5792 5798 5785 5735 5717 5785 5784 5791 5801 5797 5791 5796 5803 5793 5784 5770 5749 5751 5776 5790 5807 5809 5788 5809 5801 5760 5719 5723 5718 5723 5764 5757 5768 5798 5812 5816 5817 5818 5815 5810
5768 5768 5771 5777 5788 5786 5783 5751 5724 5757 5770 5795 5792 5794 5784 5792 5788 5793 5784 5770 5783 5777 5755 5745 5753 5793 5811 5794 5785 5782 5764 5720 5710 5706 5727 5766 5746 5773 5821 5835 5827 5822 5803 5805 5804
5775 5772 5772 5789 5788 5780 5758 5719 5727 5756 5779 5777 5786 5767 5766 5779 5782 5779 5773 5775 5787 5786 5757 5740 5758 5811 5808 5814 5797 5785 5763 5775 5736 5739 5723 5749 5775 5807 5820 5817 5818 5815 5808 5804 5800
5766 5770 5776 5796 5788 5772 5739 5725 5744 5773 5780 5781 5757 5765 5748 5760 5763 5762 5769 5784 5782 5795 5793 5772 5746 5793 5807 5815 5814 5797 5802 5757 5728 5722 5715 5734 5759 5759 5794 5795 5815 5814 5805 5807 5829
5766 5758 5785 5793 5782 5750 5721 5727 5755 5779 5787 5772 5763 5758 5756 5748 5755 5756 5759 5775 5784 5784 5791 5773 5759 5770 5791 5782 5781 5780 5771 5770 5751 5732 5713 5712 5736 5798 5802 5804 5805 5811 5816 5811 5828
5756 5745 5786 5787 5740 5733 5728 5750 5769 5771 5782 5774 5771 5760 5752 5750 5747 5749 5748 5758 5774 5768 5754 5770 5751 5745 5771 5798 5803 5795 5783 5764 5730 5735 5729 5732 5744 5817 5813 5812 5811 5815 5814 5820 5830
5739 5745 5780 5775 5723 5723 5740 5751 5760 5756 5756 5761 5757 5758 5756 5740 5731 5741 5745 5757 5761 5754 5739 5753 5734 5713 5742 5771 5787 5774 5781 5774 5753 5734 5734 5721 5740 5814 5813 5807 5814 5813 5815 5815 5821
5735 5727 5740 5744 5738 5735 5730 5735 5738 5754 5749 5749 5743 5746 5736 5727 5732 5727 5727 5744 5747 5748 5752 5749 5720 5711 5695 5721 5742 5747 5760 5770 5751 5722 5732 5735 5761 5786 5790 5797 5807 5814 5820 5815 5811
5724 5711 5717 5705 5719 5716 5726 5727 5726 5724 5734 5736 5727 5721 5714 5708 5708 5705 5717 5721 5737 5738 5731 5721 5703 5710 5714 5729 5742 5743 5749 5757 5750 5751 5739 5760 5760 5779 5793 5795 5812 5819 5814 5816 5812
5700 5695 5699 5698 5706 5713 5710 5714 5717 5721 5721 5709 5704 5712 5707 5698 5701 5695 5703 5699 5699 5718 5708 5702 5690 5701 5703 5726 5729 5734 5745 5750 5759 5759 5764 5763 5764 5797 5802 5794 5806 5816 5819 5815 5816
5695 5697 5690 5691 5695 5695 5693 5702 5702 5709 5709 5710 5705 5700 5696 5700 5708 5707 5704 5696 5693 5689 5687 5686 5680 5673 5672 5706 5710 5712 5738 5742 5747 5754 5748 5735 5761 5787 5790 5791 5795 5807 5814 5812 5813